www.pogodaiklimat.ru

Погода и климат >> Архив погоды >> Россия >> Свердловская область >> Екатеринбург


АРХИВ ПОГОДЫ в Екатеринбурге

Время (UTC), дата Ветер
(напр.,м/с)
 
Видим.   Явления Облачность Т
(С)
Тd
(С)
f
(%)
Тe
(С)
Тes
(С)
Комфортность P
(гПа)
Po
(гПа)
Тmin
(С)
Tmax
(С)
R
(мм)
R24
(мм)
S
(см)
06 11.06 Ю 2 50 км {ливн. осадки} 9/9 600 м
[Cb calv]
+12.5 +3.9 56 +12 +13 холодно 1005.9 972.9
09 11.06 Ю 1 20 км слабый ливневой дождь 9/9 600 м
[Cb cap]
+12.3 +2.8 52 +13 +14 холодно 1005.9 972.9
12 11.06 З 4
{10}
10 км слабый ливневой дождь 9/9 600 м
[Cb cap]
+11.2 +4.8 65 +9 +10 очень
холодно
1006.4 973.2
15 11.06 СЗ 1 20 км слабый ливневой дождь 9/9 600 м
[Cb cap]
+9.7 +4.6 71 +9 +9 очень
холодно
1007.2 973.8 +14.4 0.5
18 11.06 СЗ 2 10 км {ливн. осадки} 9/9 600 м
[Cb calv]
+8.6 +5.1 79 +7 +7 очень
холодно
1007.4 973.9
21 11.06 З 2 10 км 8/8 600 м
[Sc]
+7.5 +4.7 82 +5 +5 очень
холодно
1007.4 973.7
00 12.06 З 2 10 км 8/8 600 м
[Cu Sc]
+6.7 +4.5 86 +4 +4 холодно 1007.6 973.9
03 12.06 СЗ 3 20 км 9/9 600 м
[Cb calv]
+9.2 +4.4 72 +7 +7 очень
холодно
1008.0 974.5 +6.6 0.0
06 12.06 СЗ 3 50 км 8/8 600 м
[Cb cap]
+11.9 +2.1 51 +11 +13 очень
холодно
1007.8 974.6
09 12.06 З 4 50 км 8/8 600 м
[Cb calv]
+15.8 -1.9 30 +15 +17 прохладно 1007.6 974.9
12 12.06 З 4
{10}
50 км 6/6 600 м
[Sc diur, vesp]
+14.7 -4.4 26 +14 +16 холодно 1007.8 974.9
15 12.06 СЗ 2 50 км 6/6 600 м
[Sc diur, vesp]
+13.9 -4.8 27 +14 +14 прохладно 1008.4 975.4 +16.4
18 12.06 З 3 10 км 3/0
[Ac trans]
+10.4 +1.2 53 +9 +9 холодно 1009.9 976.5
21 12.06 З 1 10 км ясно +7.7 +3.4 74 +7 +7 холодно 1010.1 976.4
00 13.06 Ю 1 50 км 6/6 1000 м
[Sc]
+6.5 +3.6 82 +6 +6 холодно 1010.0 976.1
03 13.06 Ю 2 50 км 10/0
[Ac trans Ci fib]
+12.3 +4.2 58 +12 +14 прохладно 1008.7 975.6 +6.2
06 13.06 ЮЗ 3 50 км 10/3 600 м
[Sc Ac As Ci fib]
+15.0 +4.8 50 +14 +18 прохладно 1007.8 975.0
09 13.06 ЮЗ 3
{11}
10 км слабый ливневой дождь 10/10 600 м
[Cb calv]
+12.2 +8.0 75 +11 +11 очень
холодно
1007.7 974.6
12 13.06 ЮЗ 2 10 км слабый ливневой дождь 10/10 600 м
[Cb calv]
+10.9 +8.9 87 +10 +10 очень
холодно
1007.1 973.9
15 13.06 ЮВ 3 20 км {ливн. осадки} 10/4 600 м
[Sc Ac und Ci fib]
+11.9 +9.6 86 +10 +10 очень
холодно
1005.6 972.5 +15.2 2
18 13.06 ЮВ 2 10 км {ливн. осадки} 10/4 600 м
[Sc Ac As]
+11.4 +9.5 88 +10 +10 холодно 1004.1 971.1
21 13.06 ЮЗ 2 10 км 10/0
[Ac As]
+13.4 +7.9 69 +13 +13 по сезону 1003.3 970.5
00 14.06 Ю 3 20 км {ливн. осадки} 10/8 600 м
[Cb calv Ac As]
+13.1 +7.8 70 +12 +12 по сезону 1001.7 968.9
03 14.06 ЮЗ 4
{11}
20 км 10/8 600 м
[Cb calv Cs]
+13.9 +8.7 71 +13 +13 прохладно 1000.9 968.2 +11.3 0.0
06 14.06 З 4
{10}
50 км 8/8 600 м
[Cb calv]
+17.3 +9.5 60 +17 +19 по сезону 1000.7 968.4
09 14.06 ЮЗ 5
{10}
20 км 9/9 600 м
[Cb calv]
+17.4 +9.9 61 +17 +18 прохладно 1001.3 969.0
12 14.06 СЗ 6-11
{11}
50 км {ливн. осадки} 9/9 600 м
[Cb calv]
+15.8 +10.2 69 +14 +15 очень
холодно
1003.1 970.6
15 14.06 СЗ 4
{12}
50 км 8/8 600 м
[Cb calv]
+15.0 +4.0 48 +14 +14 холодно 1004.8 972.1 +17.8 0.0
18 14.06 З 4 10 км 9/9 600 м
[Sc]
+12.8 +5.1 59 +11 +11 холодно 1006.6 973.6
21 14.06 З 4
{10}
10 км 9/9 600 м
[Sc]
+10.7 +4.9 67 +8 +8 холодно 1007.8 974.5
00 15.06 З 4 50 км 6/6 600 м
[Cb calv]
+8.5 +5.1 79 +5 +5 холодно 1008.7 975.1
03 15.06 З 4
{10}
50 км 4/4 600 м
[Cb calv]
+9.4 +2.9 64 +7 +9 очень
холодно
1009.7 976.2 +8.1
06 15.06 З 5-10
{10}
50 км 9/9 600 м
[Sc]
+11.7 +1.3 49 +10 +10 очень
холодно
1009.2 976.0
09 15.06 СЗ 6-12
{12}
50 км в посл. час ливневой дождь 8/8 600 м
[Cb calv]
+14.2 -1.0 35 +13 +14 очень
холодно
1008.9 976.0
12 15.06 СЗ 5-12
{12}
50 км {ливн. осадки} 8/8 600 м
[Cb calv]
+13.6 -1.1 36 +12 +13 очень
холодно
1009.5 976.5
15 15.06 З 3
{12}
50 км 9/8 600 м
[Cb calv Cs]
+12.1 -0.6 41 +11 +11 очень
холодно
1010.3 977.1 +15.1 0.0
18 15.06 З 2
{10}
10 км {ливн. осадки} 9/9 600 м
[Cb calv]
+11.1 +0.7 49 +10 +10 холодно 1009.9 976.6
21 15.06 З 3 10 км {ливн. осадки} 9/8 600 м
[Cb calv Cs]
+9.9 +0.2 51 +8 +8 холодно 1009.1 975.6
00 16.06 З 3 20 км слабый ливневой дождь 9/9 600 м
[Cb cap]
+7.1 +4.0 81 +4 +4 очень
холодно
1008.8 975.0
03 16.06 З 3 50 км {ливн. осадки} 10/10 600 м
[Cb calv]
+6.7 +3.4 79 +4 +4 очень
холодно
1009.0 975.2 +6.0 0.8
06 16.06 СЗ 3 50 км слабый ливневой дождь 9/9 600 м
[Cb calv]
+8.0 +2.6 69 +6 +7 очень
холодно
1009.1 975.4
09 16.06 СЗ 3 50 км в посл. час ливневой дождь 9/9 600 м
[Cb calv]
+10.7 +1.2 52 +9 +10 очень
холодно
1009.1 975.8
12 16.06 С 2 50 км {ливн. осадки} 9/8 600 м
[Cb calv Cs]
+11.7 +0.5 46 +11 +12 очень
холодно
1009.1 975.9
15 16.06 СЗ 4 50 км 10/8 600 м
[Cb calv Cs]
+11.6 +1.8 51 +10 +10 очень
холодно
1009.3 976.1 +12.3 0.0
18 16.06 С 1 10 км {ливн. осадки} 10/10 600 м
[Cb calv]
+9.3 +5.2 76 +9 +9 очень
холодно
1009.3 975.8
21 16.06 СЗ 4 10 км 8/8 600 м
[Cb calv]
+8.7 +4.5 75 +6 +6 очень
холодно
1008.5 975.0
00 17.06 З 2 20 км слабая морось 10/10 300 м
[St]
+8.0 +6.5 90 +6 +6 холодно 1007.6 974.0
03 17.06 СЗ 2 10 км слабый ливневой дождь {морось} 10/10 600 м
[Cb calv]
+8.8 +6.9 88 +7 +7 очень
холодно
1006.8 973.3 +8.0 0.5
06 17.06 С 1 4000 м слабый дождь {ливн. осадки} 10/0 300 м
[As op]
+9.6 +7.7 88 +9 +12 очень
холодно
1006.8 973.4
09 17.06 СЗ 2 50 км {дождь} 8/8 1000 м
[Cu med, cong]
+15.2 +6.7 57 +15 +18 холодно 1006.9 974.2
12 17.06 СЗ 1 50 км {дождь} 9/9 600 м
[Cu Sc]
+16.8 +2.9 39 +18 +19 прохладно 1006.9 974.3
15 17.06 С 1 50 км 10/8 600 м
[Cu med, cong Ci fib]
+16.4 +1.9 38 +17 +18 прохладно 1007.1 974.5 +17.8 1
18 17.06 СЗ 3 10 км 10/6 600 м
[Sc Ci fib]
+13.1 +7.0 66 +12 +12 холодно 1007.5 974.6
21 17.06 СЗ 4 10 км 10/8 600 м
[Sc Ac und]
+12.3 +8.6 78 +10 +10 прохладно 1005.9 972.9
00 18.06 З 4 20 км {ливн. осадки} 10/6 600 м
[Sc Ci fib]
+11.0 +8.3 83 +9 +9 прохладно 1004.4 971.3

 

Местоположение метеостанции Екатеринбург (Свердловская область, Россия): широта 56.83 долгота 60.63 высота над уровнем моря 281 м.

В архиве по умолчанию представлена погода в Екатеринбурге за последнюю неделю. Архивные данные за месяц целиком и за предыдущие месяцы, начиная с января 2011 года, Вы можете получить, выбрав интересующий диапазон дат из раскрывающегося списка и нажав кнопку "Ввод!".


*Определитесь, кто Вы:
робот инопланетянин человек

Внимание! Время в таблицах - всемирное. Для получения местного времени необходимо прибавить поправку, которая в Екатеринбурге равна 5 ч.

Смотрите также архив погоды в соседних городах и на ближайших метеорологических станциях:

Погода в Екатеринбурге (Бот.сад) (Свердловская область, Россия) (5 км)
Погода в Верхнем Дуброво (Свердловская область, Россия) (29 км)
Погода в Сысерти (Свердловская область, Россия) (38 км)
Погода в Ревде (Свердловская область, Россия) (40 км)
Погода в Мариинске (Свердловская область, Россия) (52 км)
Погода в Невьянске (Свердловская область, Россия) (78 км)
Погода в Верхнем Уфалее (Челябинская область, Россия) (86 км)
Погода в Каменск-Уральском (Свердловская область, Россия) (88 км)
Погода в Бисерти (Свердловская область, Россия) (95 км)
Погода в Артемовском (Свердловская область, Россия) (98 км)

Пояснения к столбцам:

Ветер - указаны скорость ветра в м/с - средняя за 10 мин, порывы в срок и между сроками (в фигурных скобках) и направление, откуда дует ветер: С - северный, СВ - северо-восточный, В - восточный, ЮВ - юго-восточный, Ю - южный, ЮЗ - юго-западный, З - западный, СЗ - северо-западный.
Видимость - горизонтальная дальность видимости в метрах или километрах. При видимости от 1 до 10 км при отсутствии осадков обычно наблюдается дымка, при ухудшении видимости до 1 км и менее - туман. В сухую погоду видимость может ухудшаться дымом, пылью или мглою.
Явления - указаны атмосферные явления, наблюдавшиеся в срок или в последний час перед сроком; фигурными скобками обозначены явления, наблюдавшиеся между сроками (за 1-3 часа до срока); квадратными скобками обозначены град или гололедные отложения с указанием их диаметра в мм.
Облачность - указаны через наклонную черту общая и нижняя облачность в баллах и высота нижней границы облаков в метрах; квадратными скобками обозначены формы облаков: Ci - перистые, Cs - перисто-слоистые, Cc - перисто-кучевые, Ac - высококучевые, As - высокослоистые, Sc - слоисто-кучевые, Ns - слоисто-дождевые, Cu - кучевые, Cb - кучево-дождевые. Подробнее классификацию облаков см. в Атласе облаков (PDF).
T - Температура воздуха - температура, измеренная на высоте 2 м над землей.
Td - Температура точки росы - температура, при понижении до которой содержащийся в воздухе водяной пар достигнет насыщения.
f - Относительная влажность воздуха - влажноcть воздуха, измеренная на высоте 2 м над землей.
Te - Эффективная температура - температура, которую ощущает одетый по сезону человек в тени. Характеристика душности погоды. При расчете учитывается влияние влажности воздуха и скорости ветра на теплоощущения человека.
Tes - Эффективная температура на солнце - температура, которую ощущает человек, с поправкой на солнечный нагрев. Характеристика знойности погоды. Зависит от высоты солнца над горизонтом, облачности и скорости ветра. Ночью, в пасмурную погоду, а также при ветре 12 м/с и более поправка равна нулю.
P - Атмосферное давление - приведенное к уровню моря атмосферное давление.
Po - Атмосферное давление - измеренное на уровне метеостанции атмосферное давление.
Tmin - Минимальная температура - минимум температуры воздуха на высоте 2 м над землей.
Tmax - Максимальная температура - максимум температуры воздуха на высоте 2 м над землей.
R - Количество осадков - Количество выпавших осадков за период времени, мм. При наведении курсора мыши на число - период времени, за который выпало указанное количество осадков.
R24 - Количество осадков - Количество выпавших осадков за 24 часа, мм.
S - Снежный покров - Высота снежного покрова, см. При наведении курсора мыши на число - состояние снежного покрова и степень покрытия местности в баллах.